Flag for U.S.A. Weather past 2 weeks in Bridgewater, Massachusetts, U.S.A.

Now
85 °F

Sunny.


Feels Like: 88 °F
Forecast: 59 / 87 °F
Wind: 5 mph from North

Location: Taunton Municipal Airport

Current Time: Jul 22, 2014 at 7:14:03 PM

Latest Report: Jul 22, 2014 at 12:52 PM


Visibility: 10 mi

Pressure: 30.10 "Hg

Humidity: 55%

Dew point: 67 °F

Location of BridgewaterLocation

Historic Weather in Bridgewater — Graph

°F

Bridgewater temperature yesterday

Maximum temperature yesterday: 79 °F (at 2:52 PM)
Minimum temperature yesterday: 59 °F (at 11:52 PM)
Average temperature yesterday: 68 °F

Past Weeks' High & Low Weather Summary

 TemperatureHumidityPressure
High89 °F (Jul 8, 2:52 PM)97% (Jul 12, 2:52 AM)30.26 "Hg (Jul 12, 2:52 AM)
Low54 °F (Jul 12, 3:52 AM)37% (Jul 12, 2:52 PM)29.70 "Hg (Jul 9, 1:52 AM)
Average72 °F76%30.02 "Hg
* Reported Jul 7 12:52 PM — Jul 22 12:52 PM, Bridgewater, Weather by CustomWeather, © 2014

Note: Actual official high and low records may vary slightly from our data, if they occured in-between our weather recording intervals... More about our weather records

Advertising

Bridgewater weather history for previous 24 hours

 ConditionsComfort  
Time TempWeatherWind HumidityBarometerVisibility
12:52 PM
Jul 22
85 °FSunny.5 mph55%30.10 "Hg10 mi
11:52 AM84 °FSunny.6 mph57%30.10 "Hg10 mi
10:52 AM82 °FSunny.No wind60%30.11 "Hg10 mi
9:52 AM79 °FSunny.5 mph67%30.11 "Hg10 mi
8:52 AM74 °FSunny.5 mph74%30.14 "Hg10 mi
7:52 AM70 °FSunny.5 mph81%30.15 "Hg10 mi
5:52 AM57 °FFog.No wind93%30.15 "Hg5 mi
4:52 AM57 °FFog.No wind93%30.14 "Hg5 mi
3:52 AM58 °FClear.No wind93%30.14 "Hg8 mi
2:52 AM57 °FFog.No wind96%30.14 "Hg1 mi
1:52 AM58 °FFog.No wind93%30.14 "Hg4 mi
12:52 AM58 °FClear.No wind97%30.15 "Hg8 mi
11:52 PM
Jul 21
59 °FFog.No wind96%30.16 "Hg5 mi
10:52 PM60 °FFog.No wind96%30.17 "Hg6 mi
9:52 PM62 °FClear.No wind96%30.17 "Hg9 mi
8:52 PM64 °FSunny.No wind90%30.16 "Hg10 mi
7:52 PM70 °FSunny.5 mph76%30.15 "Hg10 mi
Weather by CustomWeather, © 2014

See weather overviewHow to use our weather pages